• In Austria
  • List of Countries
  • For 7 days
  • Water Temperature
  • Satellite Maps
  • Weather Map
  • News
  • Weather Widgets
  • user-avatar
    Login

    Hourly Weather Korçe

    Today, 24 May, Thursday

    Time Temperature Precipitation Wind Pressure Humidity
    00:00 +12°C° 0 mm 1 mps 666 mmHg 91%
    01:00 +11°C° 0 mm 1 mps 666 mmHg 91%
    02:00 +11°C° 0 mm 1 mps 665 mmHg 91%
    03:00 +11°C° 0 mm 1 mps 665 mmHg 91%
    04:00 +10°C° 0 mm 1 mps 665 mmHg 91%
    05:00 +12°C° 0 mm 1 mps 666 mmHg 87%
    06:00 +13°C° 0 mm 1 mps 666 mmHg 82%
    07:00 +15°C° 0 mm 1 mps 667 mmHg 77%
    08:00 +16°C° 0.1 mm 1 mps 667 mmHg 73%
    09:00 +18°C° 0.1 mm 1 mps 667 mmHg 69%
    10:00 +18°C° 0.1 mm 2 mps 667 mmHg 65%
    11:00 +19°C° 0.4 mm 2 mps 667 mmHg 65%
    12:00 +19°C° 0.4 mm 2 mps 667 mmHg 65%
    13:00 +20°C° 0.4 mm 2 mps 667 mmHg 64%
    14:00 +19°C° 0.7 mm 2 mps 667 mmHg 66%
    15:00 +19°C° 0.7 mm 2 mps 667 mmHg 68%
    16:00 +19°C° 0.7 mm 2 mps 666 mmHg 71%
    17:00 +17°C° 0.6 mm 2 mps 666 mmHg 76%
    18:00 +16°C° 0.6 mm 2 mps 666 mmHg 82%
    19:00 +14°C° 0.6 mm 1 mps 665 mmHg 88%
    20:00 +14°C° 0.2 mm 1 mps 666 mmHg 89%
    21:00 +13°C° 0.2 mm 1 mps 666 mmHg 90%
    22:00 +13°C° 0.2 mm 1 mps 666 mmHg 91%
    23:00 +12°C° 0 mm 1 mps 665 mmHg 90%

    Tomorrow, 25 May, Friday

    Time Temperature Precipitation Wind Pressure Humidity
    00:00 +12°C° 0 mm 1 mps 665 mmHg 90%
    01:00 +12°C° 0 mm 1 mps 665 mmHg 90%
    02:00 +12°C° 0 mm 1 mps 665 mmHg 89%
    03:00 +11°C° 0 mm 1 mps 665 mmHg 89%
    04:00 +11°C° 0 mm 1 mps 665 mmHg 88%
    05:00 +13°C° 0 mm 1 mps 665 mmHg 84%
    06:00 +15°C° 0 mm 1 mps 666 mmHg 79%
    07:00 +16°C° 0 mm 1 mps 666 mmHg 75%
    08:00 +19°C° 0 mm 1 mps 667 mmHg 68%
    09:00 +20°C° 0 mm 1 mps 667 mmHg 62%
    10:00 +22°C° 0 mm 1 mps 668 mmHg 55%
    11:00 +21°C° 0.1 mm 2 mps 668 mmHg 55%
    12:00 +21°C° 0.1 mm 2 mps 668 mmHg 54%
    13:00 +23°C° 0.1 mm 2 mps 667 mmHg 54%
    14:00 +21°C° 0.7 mm 2 mps 667 mmHg 57%
    15:00 +21°C° 0.7 mm 2 mps 667 mmHg 60%
    16:00 +20°C° 0.7 mm 2 mps 667 mmHg 64%
    17:00 +19°C° 0.5 mm 2 mps 667 mmHg 70%
    18:00 +18°C° 0.5 mm 1 mps 666 mmHg 76%
    19:00 +15°C° 0.5 mm 1 mps 666 mmHg 82%
    20:00 +15°C° 0.1 mm 1 mps 666 mmHg 83%
    21:00 +14°C° 0.1 mm 1 mps 667 mmHg 84%
    22:00 +14°C° 0.1 mm 1 mps 667 mmHg 85%
    23:00 +13°C° 0 mm 1 mps 667 mmHg 84%

    Day after tomorrow, 26 May, Saturday

    Time Temperature Precipitation Wind Pressure Humidity
    00:00 +13°C° 0 mm 1 mps 667 mmHg 84%
    01:00 +13°C° 0 mm 1 mps 666 mmHg 84%
    02:00 +12°C° 0 mm 1 mps 666 mmHg 83%
    03:00 +12°C° 0 mm 1 mps 666 mmHg 83%
    04:00 +12°C° 0 mm 1 mps 666 mmHg 83%
    05:00 +14°C° 0 mm 1 mps 667 mmHg 79%
    06:00 +15°C° 0 mm 1 mps 668 mmHg 75%
    07:00 +18°C° 0 mm 1 mps 668 mmHg 71%
    08:00 +19°C° 0 mm 1 mps 669 mmHg 65%
    09:00 +21°C° 0 mm 1 mps 669 mmHg 60%
    10:00 +22°C° 0 mm 1 mps 670 mmHg 54%
    11:00 +23°C° 0.5 mm 2 mps 670 mmHg 54%
    12:00 +23°C° 0.5 mm 2 mps 670 mmHg 54%
    13:00 +23°C° 0.5 mm 2 mps 670 mmHg 54%
    14:00 +23°C° 0.9 mm 2 mps 669 mmHg 56%
    15:00 +21°C° 0.9 mm 2 mps 669 mmHg 58%
    16:00 +21°C° 0.9 mm 2 mps 669 mmHg 59%
    17:00 +19°C° 0.2 mm 2 mps 669 mmHg 65%
    18:00 +19°C° 0.2 mm 1 mps 668 mmHg 71%
    19:00 +16°C° 0.2 mm 1 mps 668 mmHg 77%
    20:00 +16°C° 0 mm 1 mps 668 mmHg 78%
    21:00 +15°C° 0 mm 1 mps 668 mmHg 79%
    22:00 +14°C° 0 mm 1 mps 668 mmHg 80%
    23:00 +14°C° 0 mm 1 mps 668 mmHg 80%

    27 May, Sunday

    Time Temperature Precipitation Wind Pressure Humidity
    00:00 +14°C° 0 mm 1 mps 668 mmHg 79%
    01:00 +14°C° 0 mm 1 mps 668 mmHg 79%
    02:00 +13°C° 0 mm 1 mps 668 mmHg 79%
    03:00 +13°C° 0 mm 1 mps 668 mmHg 79%
    04:00 +13°C° 0 mm 1 mps 668 mmHg 80%
    05:00 +15°C° 0 mm 1 mps 668 mmHg 76%
    06:00 +16°C° 0 mm 1 mps 669 mmHg 72%
    07:00 +19°C° 0 mm 1 mps 670 mmHg 68%
    08:00 +21°C° 0 mm 1 mps 670 mmHg 61%
    09:00 +21°C° 0 mm 2 mps 670 mmHg 55%
    10:00 +23°C° 0 mm 2 mps 670 mmHg 49%
    11:00 +24°C° 0 mm 2 mps 670 mmHg 48%
    12:00 +24°C° 0 mm 2 mps 670 mmHg 46%
    13:00 +25°C° 0 mm 2 mps 671 mmHg 45%
    14:00 +24°C° 0 mm 2 mps 670 mmHg 49%
    15:00 +24°C° 0 mm 2 mps 670 mmHg 52%
    16:00 +24°C° 0 mm 2 mps 670 mmHg 56%
    17:00 +21°C° 0.2 mm 2 mps 669 mmHg 64%
    18:00 +20°C° 0.2 mm 1 mps 669 mmHg 71%
    19:00 +18°C° 0.2 mm 1 mps 669 mmHg 79%
    20:00 +16°C° 0 mm 1 mps 669 mmHg 80%
    21:00 +16°C° 0 mm 1 mps 669 mmHg 81%
    22:00 +15°C° 0 mm 1 mps 669 mmHg 82%
    23:00 +15°C° 0 mm 1 mps 669 mmHg 82%

    28 May, Monday

    Time Temperature Precipitation Wind Pressure Humidity
    00:00 +15°C° 0 mm 1 mps 669 mmHg 82%
    01:00 +14°C° 0 mm 1 mps 668 mmHg 81%
    02:00 +14°C° 0 mm 1 mps 668 mmHg 81%
    03:00 +14°C° 0 mm 1 mps 668 mmHg 82%
    04:00 +13°C° 0 mm 1 mps 668 mmHg 82%
    05:00 +15°C° 0 mm 1 mps 669 mmHg 78%
    06:00 +18°C° 0 mm 1 mps 669 mmHg 74%
    07:00 +19°C° 0 mm 1 mps 670 mmHg 70%
    08:00 +21°C° 0.1 mm 1 mps 670 mmHg 65%
    09:00 +22°C° 0.1 mm 1 mps 670 mmHg 61%
    10:00 +23°C° 0.1 mm 1 mps 671 mmHg 56%
    11:00 +24°C° 0.3 mm 2 mps 671 mmHg 54%
    12:00 +24°C° 0.3 mm 2 mps 670 mmHg 53%
    13:00 +25°C° 0.3 mm 2 mps 670 mmHg 51%
    14:00 +24°C° 0.4 mm 2 mps 670 mmHg 54%
    15:00 +24°C° 0.4 mm 2 mps 670 mmHg 56%
    16:00 +24°C° 0.4 mm 2 mps 669 mmHg 59%
    17:00 +21°C° 0.5 mm 2 mps 669 mmHg 66%
    18:00 +19°C° 0.5 mm 2 mps 669 mmHg 72%
    19:00 +18°C° 0.5 mm 1 mps 668 mmHg 79%
    20:00 +16°C° 0 mm 1 mps 668 mmHg 80%
    21:00 +16°C° 0 mm 1 mps 668 mmHg 81%
    22:00 +15°C° 0 mm 1 mps 668 mmHg 82%
    23:00 +15°C° 0 mm 1 mps 668 mmHg 82%

    29 May, Tuesday

    Time Temperature Precipitation Wind Pressure Humidity
    00:00 +14°C° 0 mm 1 mps 668 mmHg 82%
    01:00 +14°C° 0 mm 1 mps 668 mmHg 83%
    02:00 +14°C° 0 mm 1 mps 668 mmHg 83%
    03:00 +13°C° 0 mm 1 mps 668 mmHg 83%
    04:00 +13°C° 0 mm 1 mps 667 mmHg 84%
    05:00 +15°C° 0 mm 1 mps 668 mmHg 80%
    06:00 +16°C° 0 mm 1 mps 669 mmHg 76%
    07:00 +19°C° 0 mm 1 mps 669 mmHg 72%
    08:00 +20°C° 0.1 mm 1 mps 669 mmHg 67%
    09:00 +22°C° 0.1 mm 1 mps 670 mmHg 62%
    10:00 +23°C° 0.1 mm 1 mps 670 mmHg 56%
    11:00 +23°C° 0.4 mm 1 mps 670 mmHg 56%
    12:00 +24°C° 0.4 mm 2 mps 670 mmHg 55%
    13:00 +24°C° 0.4 mm 2 mps 669 mmHg 55%
    14:00 +24°C° 0.7 mm 2 mps 669 mmHg 57%
    15:00 +23°C° 0.7 mm 2 mps 669 mmHg 59%
    16:00 +23°C° 0.7 mm 2 mps 669 mmHg 61%
    17:00 +20°C° 0.4 mm 2 mps 668 mmHg 67%
    18:00 +20°C° 0.4 mm 1 mps 668 mmHg 73%
    19:00 +18°C° 0.4 mm 1 mps 668 mmHg 80%
    20:00 +16°C° 0 mm 1 mps 668 mmHg 81%
    21:00 +15°C° 0 mm 1 mps 667 mmHg 82%
    22:00 +15°C° 0 mm 1 mps 667 mmHg 84%
    23:00 +14°C° 0 mm 1 mps 667 mmHg 83%
    Show more